DW5057 Weather Reports


time (UTC)temp
C
wind
direction
speed
KPH
gust
KPH
rain 1hr
cm
rain 24hr
cm
rain mn
cm
humidity
%
barometer
mb
20260506201516 20 210 0.0 4.8 0.00 0.08 0.08 77 1009.2
20260506200516 20 199 1.6 4.8 0.00 0.08 0.08 77 1009.3
20260506195517 19 210 1.6 6.4 0.00 0.08 0.08 77 1009.3
20260506194517 18 207 1.6 6.4 0.00 0.08 0.08 79 1009.4
20260506193518 18 203 3.2 8.0 0.00 0.08 0.08 82 1009.6
20260506192537 18 198 3.2 6.4 0.00 0.08 0.08 82 1010.1
20260506191538 17 189 3.2 6.4 0.00 0.08 0.08 83 1010.1
20260506190517 17 205 1.6 3.2 0.00 0.08 0.08 83 1010.2
20260506185536 17 205 1.6 3.2 0.00 0.08 0.08 84 1010.2
20260506184516 17 185 1.6 4.8 0.00 0.08 0.08 85 1010.2
20260506183557 16 138 1.6 4.8 0.00 0.08 0.08 86 1010.5
20260506182537 17 166 1.6 4.8 0.00 0.08 0.08 84 1010.6
20260506181536 18 127 1.6 8.0 0.05 0.08 0.08 82 1010.7
20260506180516 18 88 1.6 6.4 0.08 0.08 0.08 80 1010.7
20260506175516 18 103 1.6 3.2 0.08 0.08 0.08 79 1010.7
20260506174516 18 129 1.6 4.8 0.08 0.08 0.08 79 1010.7
20260506173516 18 162 1.6 4.8 0.08 0.08 0.08 81 1010.8
20260506172516 17 130 1.6 6.4 0.05 0.05 0.05 81 1011.0
20260506171516 17 205 1.6 4.8 0.00 0.00 0.00 80 1011.0
20260506170517 16 232 1.6 4.8 0.00 0.00 0.00 84 1011.3
20260506165518 16 198 1.6 3.2 0.00 0.00 0.00 87 1011.7
20260506164518 16 177 1.6 4.8 0.00 0.00 0.00 86 1011.9
20260506163518 16 202 1.6 4.8 0.00 0.00 0.00 85 1012.0
20260506162518 16 183 1.6 4.8 0.00 0.00 0.00 86 1012.2
20260506161518 16 154 1.6 6.4 0.00 0.00 0.00 85 1011.9
20260506160516 16 176 1.6 6.4 0.00 0.00 0.00 86 1012.1
20260506155519 16 176 1.6 4.8 0.00 0.00 0.00 86 1012.2
20260506154516 16 185 1.6 4.8 0.00 0.00 0.00 85 1012.2
20260506153517 17 186 1.6 4.8 0.00 0.00 0.00 83 1012.3
20260506152517 17 170 1.6 4.8 0.00 0.00 0.00 83 1012.3
20260506151516 17 191 1.6 6.4 0.00 0.00 0.00 83 1012.4
20260506150516 17 196 1.6 4.8 0.00 0.00 0.00 82 1012.3
20260506145517 17 181 1.6 4.8 0.00 0.00 0.00 81 1012.2
20260506144537 17 209 1.6 6.4 0.00 0.00 0.00 83 1012.4
20260506143518 17 174 1.6 6.4 0.00 0.00 0.00 82 1012.5
20260506142537 18 130 1.6 6.4 0.00 0.00 0.00 80 1012.6
20260506141517 18 153 1.6 4.8 0.00 0.00 0.00 79 1012.4
20260506140518 18 210 1.6 6.4 0.00 0.00 0.00 80 1012.3
20260506135518 18 157 1.6 4.8 0.00 0.00 0.00 79 1012.3
20260506134518 17 64 1.6 4.8 0.00 0.00 0.00 81 1012.5
20260506133619 17 105 1.6 4.8 0.00 0.00 0.00 82 1012.6
20260506132518 17 208 1.6 4.8 0.00 0.00 0.00 82 1012.7
20260506131519 17 175 1.6 4.8 0.00 0.00 0.00 83 1012.6
20260506130518 16 192 1.6 3.2 0.00 0.00 0.00 86 1012.8
20260506125516 16 160 1.6 4.8 0.00 0.00 0.00 86 1012.8
20260506124536 16 182 0.0 3.2 0.00 0.00 0.00 87 1012.8
20260506123516 16 226 1.6 6.4 0.00 0.00 0.00 86 1012.6
20260506122516 15 222 1.6 3.2 0.00 0.00 0.00 90 1012.7
20260506121524 15 181 1.6 3.2 0.00 0.00 0.00 92 1012.7
20260506120524 15 221 1.6 3.2 0.00 0.00 0.00 93 1012.7
20260506115525 15 181 1.6 3.2 0.00 0.00 0.00 92 1012.8
20260506114525 15 227 1.6 3.2 0.00 0.00 0.00 92 1012.7
20260506113525 15 184 1.6 3.2 0.00 0.00 0.00 93 1012.7
20260506112525 15 194 1.6 3.2 0.00 0.00 0.00 93 1012.7
20260506111525 15 201 0.0 1.6 0.00 0.00 0.00 94 1012.7
20260506110525 14 208 1.6 3.2 0.00 0.00 0.00 94 1012.7
20260506105545 14 181 1.6 3.2 0.00 0.00 0.00 94 1012.8
20260506104518 14 173 1.6 4.8 0.00 0.00 0.00 94 1012.9
20260506103518 14 158 1.6 6.4 0.00 0.00 0.00 94 1012.9
20260506102518 14 167 1.6 6.4 0.00 0.00 0.00 94 1012.8
20260506101516 14 160 1.6 4.8 0.00 0.00 0.00 94 1012.8
20260506100516 14 172 3.2 6.4 0.00 0.00 0.00 94 1012.6
20260506095516 14 174 3.2 6.4 0.00 0.00 0.00 94 1012.6
20260506094516 14 155 1.6 6.4 0.00 0.00 0.00 94 1012.7
20260506093537 14 165 1.6 6.4 0.00 0.00 0.00 94 1012.7
20260506092516 14 158 3.2 6.4 0.00 0.00 0.00 94 1012.6
20260506091516 14 168 1.6 6.4 0.00 0.00 0.00 94 1012.6
20260506090516 14 175 1.6 6.4 0.00 0.00 0.00 94 1012.7
20260506085517 14 165 1.6 4.8 0.00 0.00 0.00 94 1012.9
20260506084517 14 172 1.6 4.8 0.00 0.00 0.00 93 1013.0
20260506083517 15 210 0.0 3.2 0.00 0.00 0.00 92 1013.0
20260506082517 15 217 0.0 6.4 0.00 0.00 0.00 90 1013.1
20260506081518 15 170 1.6 4.8 0.00 0.00 0.00 90 1013.0
20260506080558 15 167 1.6 4.8 0.00 0.00 0.00 90 1013.0
20260506073518 15 169 1.6 4.8 0.00 0.00 0.00 90 1012.9
20260506072518 15 178 1.6 4.8 0.00 0.00 0.00 91 1012.9
20260506071515 15 166 1.6 4.8 0.00 0.00 0.00 92 1013.0
20260506070518 14 168 1.6 4.8 0.00 0.00 0.00 93 1013.0
20260506062517 14 178 1.6 6.4 0.00 0.00 0.00 93 1013.1
20260506061516 14 175 1.6 6.4 0.00 0.00 0.00 93 1013.2
20260506060517 14 166 1.6 6.4 0.00 0.00 0.00 92 1013.2
20260506050537 15 162 1.6 6.4 0.00 0.00 0.00 91 1013.7
20260506044518 15 163 1.6 4.8 0.00 0.00 0.00 91 1013.7
20260506043519 15 170 1.6 4.8 0.00 0.00 0.00 90 1013.6
20260506042519 15 175 1.6 4.8 0.00 0.00 0.00 91 1013.6
20260506041517 15 189 1.6 4.8 0.00 0.00 0.00 91 1013.6
20260506040516 15 229 1.6 6.4 0.00 0.00 0.00 90 1013.6
20260506035517 15 195 1.6 6.4 0.00 0.00 0.00 90 1013.7
20260506034517 15 172 1.6 4.8 0.00 0.00 0.00 90 1013.7
20260506033538 15 187 1.6 4.8 0.00 0.00 0.00 90 1013.7
20260506032517 15 221 1.6 4.8 0.00 0.00 0.00 90 1013.8
20260506031517 15 216 1.6 8.0 0.00 0.00 0.00 89 1013.7
20260506030518 15 177 1.6 4.8 0.00 0.00 0.00 89 1013.7
20260506025518 15 204 1.6 6.4 0.00 0.00 0.00 89 1013.8
20260506024538 15 225 1.6 4.8 0.00 0.00 0.00 88 1013.8
20260506023518 15 140 1.6 3.2 0.00 0.00 0.00 88 1013.8
20260506022518 15 188 1.6 6.4 0.00 0.00 0.00 88 1013.7
20260506021518 15 190 1.6 3.2 0.00 0.00 0.00 87 1013.7
20260506020518 15 191 1.6 6.4 0.00 0.00 0.00 87 1013.7
20260506015538 15 130 1.6 4.8 0.00 0.00 0.00 87 1013.6
20260506014519 15 186 1.6 4.8 0.00 0.00 0.00 87 1013.5
20260506013516 15 181 1.6 8.0 0.00 0.00 0.00 86 1013.4
20260506012536 16 173 1.6 6.4 0.00 0.00 0.00 86 1013.4
20260506011516 16 148 1.6 4.8 0.00 0.00 0.00 86 1013.3
20260506010517 16 121 1.6 4.8 0.00 0.00 0.00 85 1013.3
20260506005517 16 144 1.6 4.8 0.00 0.00 0.00 86 1013.1
20260506004517 16 138 1.6 8.0 0.00 0.00 0.00 86 1013.0
20260506003517 16 137 1.6 4.8 0.00 0.00 0.00 86 1012.8
20260506002517 16 127 1.6 4.8 0.00 0.00 0.00 86 1012.8
20260506001557 16 129 1.6 6.4 0.00 0.00 0.00 86 1012.8
20260506000517 16 174 1.6 4.8 0.00 0.00 0.00 85 1012.8
20260505235538 16 229 1.6 6.4 0.00 0.00 0.00 85 1012.8
20260505234522 16 156 1.6 4.8 0.00 0.00 0.00 84 1012.8
20260505233518 16 192 1.6 6.4 0.00 0.00 0.00 84 1012.7
20260505232519 16 174 1.6 6.4 0.00 0.00 0.00 83 1012.8
20260505231538 16 178 1.6 6.4 0.00 0.00 0.00 83 1012.8
20260505230559 16 207 1.6 4.8 0.00 0.00 0.00 82 1012.7
20260505225535 16 189 3.2 6.4 0.00 0.00 0.00 81 1012.7
20260505224516 16 177 3.2 8.0 0.00 0.00 0.00 81 1012.6
20260505223516 17 179 3.2 8.0 0.00 0.00 0.00 79 1012.5
20260505222516 17 177 3.2 6.4 0.00 0.00 0.00 79 1012.4
20260505221516 17 174 3.2 8.0 0.00 0.00 0.00 78 1012.5
20260505220557 17 181 3.2 8.0 0.00 0.00 0.00 77 1012.4
20260505215557 17 170 4.8 9.7 0.00 0.00 0.00 77 1012.3
20260505214516 17 170 3.2 9.7 0.00 0.00 0.00 77 1012.2
20260505213517 17 174 4.8 8.0 0.00 0.00 0.00 77 1012.1
20260505212517 17 169 4.8 9.7 0.00 0.00 0.00 77 1012.1
20260505211537 17 154 4.8 8.0 0.00 0.00 0.00 77 1012.2
20260505210518 17 158 3.2 8.0 0.00 0.00 0.00 77 1012.1
20260505205518 18 159 3.2 6.4 0.00 0.00 0.00 76 1012.2
20260505204518 18 164 4.8 9.7 0.00 0.00 0.00 75 1012.1
20260505203518 17 152 4.8 8.0 0.00 0.00 0.00 76 1012.2
20260505202519 18 156 3.2 9.7 0.00 0.00 0.00 76 1012.2